{"data":{"norad_id":68050,"epoch":"2026-05-25T03:12:20.411712Z","epoch_age_seconds":60625,"freshness":"FRESH","line1":"1 68050U 26041L   26145.13356958  .00032368  00000+0  96502-3 0  9996","line2":"2 68050  53.1601  53.2740 0001339  73.0516 287.0634 15.34398319 13118","mean_motion":15.34398319,"eccentricity":0.0001339,"inclination_deg":53.1601,"raan_deg":53.274,"arg_perigee_deg":73.0516,"mean_anomaly_deg":287.0634,"bstar":0.00096502,"rev_number":1311,"period_min":93.84786089563,"perigee_km":461.79224732075,"apogee_km":463.62422567509,"semimajor_km":6840.8452364979,"source":"CELESTRAK","updated_at":"2026-05-25T13:38:21.812321Z"}}